www.pogodaiklimat.ru

Погода и климат >> Архив погоды >> Португалия >> Овар


ПОГОДА в Оваре

  • Прогноз погоды в Оваре
  • Монитор погоды в Оваре

АРХИВ ПОГОДЫ в Оваре

Время (UTC), дата Ветер
(напр.,м/с)
 
Видим.   Явления Облачность Т
(С)
Тd
(С)
f
(%)
Тe
(С)
Тes
(С)
Комфортность P
(гПа)
Po
(гПа)
Тmin
(С)
Tmax
(С)
R
(мм)
R24
(мм)
S
(см)
00 13.06 С 4 10 км ясно +13.0 +10.5 85 +11 +11 1013.4 1011.4
03 13.06 С 2 10 км ясно +12.2 +10.8 91 +11 +11 1012.4 1010.4
06 13.06 С 1 10 км 1/1 900 м
[Sc]
+9.2 +6.4 83 +9 +9 1012.6 1010.5 +8.0
09 13.06 СЗ 4 10 км 1/1 600 м
[Cu Sc]
+15.4 +9.3 67 +14 +21 1013.2 1011.2
12 13.06 СЗ 5-8
{8}
10 км 1/1 600 м
[Cu med, cong]
+17.0 +9.1 60 +16 +26 1013.4 1011.4
15 13.06 СЗ 6-9
{9}
10 км 1/1 600 м
[Cu med, cong]
+18.0 +8.3 53 +17 +23 1013.4 1011.4
18 13.06 С 5-8
{9}
10 км 1/1 600 м
[Cu med, cong]
+16.8 +10.1 65 +16 +17 1013.3 1011.2 +18.0
21 13.06 С 5
{9}
10 км 1/1 540 м
[Sc diur, vesp]
+13.8 +10.2 79 +12 +12 1014.1 1012.1
00 14.06 С 1 10 км 3/3 600 м
[Sc]
+10.0 +8.9 93 +9 +9 1014.1 1012.0
03 14.06 Ю 1 10 км 3/3 240 м
[St]
+8.0 +7.2 95 +7 +7 1013.7 1011.6
06 14.06 Ю 2 10 км 1/1 450 м
[Cu Sc]
+8.8 +7.2 90 +7 +7 1014.2 1012.1 +7.6
09 14.06 З 2 10 км 5/5 600 м
[Cu Sc]
+16.0 +11.2 73 +16 +21 1015.3 1013.3
12 14.06 З 4 10 км 6/6 600 м
[Cu Sc Ci fib]
+17.8 +10.5 62 +18 +23 1016.6 1014.6
15 14.06 З 6-9
{9}
10 км 6/6 600 м
[Cu Sc]
+18.0 +11.5 66 +17 +20 1017.2 1015.2
18 14.06 СЗ 3
{8}
10 км 5/5 660 м
[Cu Sc]
+17.8 +12.1 69 +18 +19 1017.7 1015.7 +19.0
21 14.06 Ю 1 10 км 3/3 600 м
[Cu Sc]
+14.0 +11.2 83 +14 +14 1019.4 1017.3
00 15.06 С 1 10 км 6/5 540 м
[Cu Sc]
+11.4 +10.3 93 +11 +11 1020.1 1018.1
03 15.06 нст 1 10 км 6/6 540 м
[Cu Sc]
+10.8 +10.1 95 +10 +10 1020.1 1018.0
06 15.06 С 1 10 км 3/3 540 м
[Cu Sc Ci fib]
+10.6 +10.2 97 +10 +10 1020.8 1018.7 +10.2
09 15.06 СЗ 1 10 км 4/4 600 м
[Cu Sc Ci fib]
+16.4 +13.4 82 +17 +24 1021.7 1019.7
12 15.06 СЗ 4 10 км 4/3 600 м
[Cu Sc Ci]
+18.4 +12.4 68 +19 +28 1022.3 1020.3
15 15.06 СЗ 5-8
{9}
10 км 5/1 600 м
[Cu med, cong Ci]
+18.2 +12.1 68 +18 +25 1022.1 1020.0
18 15.06 С 6-9
{9}
10 км 3/0
[Ci fib]
+17.8 +11.7 67 +17 +18 1021.1 1019.1 +19.2
21 15.06 С 4 10 км 1/0
[Ci fib]
+15.2 +11.8 80 +14 +14 1021.1 1019.1
00 16.06 С 3 10 км ясно +13.8 +11.7 87 +13 +13 1020.7 1018.6
03 16.06 С 1 10 км 1/0
[Ci fib]
+10.8 +9.7 93 +10 +10 1019.3 1017.2
06 16.06 С 1 10 км 6/0
[Ci]
+10.0 +8.9 93 +9 +10 1019.0 1016.9 +9.4
09 16.06 СЗ 3 10 км 6/0
[Ci sp]
+17.2 +11.7 70 +17 +25 1019.0 1017.0
12 16.06 СЗ 5 10 км 8/0
[Cs]
+18.6 +12.2 66 +19 +28 1019.0 1017.0
15 16.06 СЗ 6-9
{9}
10 км 4/0
[Ac trans Ci fib]
+19.0 +12.3 65 +20 +25 1018.7 1016.7
18 16.06 СЗ 5
{9}
10 км 3/0
[Ci fib]
+18.0 +12.3 69 +18 +19 1018.9 1016.9 +19.4
21 16.06 С 2 10 км 1/0
[Ci fib]
+15.0 +12.6 86 +15 +15 1019.5 1017.4
00 17.06 С 1 10 км ясно +13.2 +11.8 91 +13 +13 1019.4 1017.4
03 17.06 штиль 0 10 км туман поземный ясно +10.4 +9.7 95 +10 +10 1017.5 1015.5
06 17.06 С 1 10 км 5/5 360 м
[Cu med, cong]
+9.6 +9.2 97 +9 +9 1017.4 1015.3 +8.4
09 17.06 З 3 10 км 6/4 450 м
[Cu med, cong Ac trans Cc]
+17.2 +13.2 77 +17 +21 1016.8 1014.7
12 17.06 З 2 10 км 9/1 450 м
[Cu med, cong Ac trans Ci sp]
+16.8 +13.1 79 +17 +27 1016.5 1014.5
15 17.06 СЗ 2 10 км в посл. час ливневой дождь 9/4 540 м
[Cu med, cong Ac und]
+16.6 +14.0 85 +17 +20 1015.4 1013.3 0.0
18 17.06 С 5 10 км {ливн. осадки} 8/5 540 м
[Cu Sc Ac und]
+17.6 +12.9 74 +17 +18 1013.2 1011.2 +17.8
21 17.06 Ю 2 10 км 5/5 900 м
[Sc As trans]
+15.2 +12.5 84 +15 +15 1013.2 1011.2 0.0
00 18.06 С 1 10 км 5/5 900 м
[Sc]
+11.8 +9.6 86 +12 +12 1013.2 1011.1
03 18.06 Ю 3 10 км 9/9 900 м
[Sc]
+15.0 +10.4 74 +14 +14 1011.7 1009.7
06 18.06 Ю 6
{9}
6000 м дождь {морось} 9/9 240 м
[Sc]
+14.6 +13.9 96 +13 +13 1011.1 1009.0 +10.8 1
09 18.06 Ю 8 10 км в посл. час дождь {морось} 9/9 300 м
[Sc]
+18.2 +15.7 85 +18 +18 1011.4 1009.4 0.2
12 18.06 Ю 7-12
{15}
10 км {дождь, морось} 9/9 300 м
[Cu Sc]
+21.0 +15.3 70 +24 +25 комфорт 1011.3 1009.3
15 18.06 Ю 10
{17}
2000 м дождь {морось} 10/10 180 м
[Cu Sc]
+18.4 +17.2 93 +18 +18 1012.3 1010.3 1
18 18.06 Ю 8 7000 м в посл. час дождь {морось} 9/9 180 м
[Cu Sc]
+17.8 +17.5 98 +17 +17 1012.9 1010.9 +21.4 5
21 18.06 Ю 5 6000 м дымка 10/10 120 м
[Cu Sc]
+17.6 +17.0 96 +17 +17 1013.5 1011.5 6
00 19.06 Ю 4 6000 м дымка 10/10 120 м
[Cu med, cong]
+17.2 +16.6 96 +17 +17 1014.2 1012.2
03 19.06 Ю 4 4000 м дождь {морось} 10/10 120 м
[Cu med, cong]
+17.0 +16.7 98 +16 +16 1013.9 1011.9 0.4
06 19.06 ЮЗ 2 7000 м дымка {дождь} 9/9 120 м
[Cu Sc]
+16.2 +15.9 98 +16 +16 1014.9 1012.9 +16.2
09 19.06 Ю 2 10 км 9/4 450 м
[Cu Sc Ac trans Ci]
+17.8 +10.1 61 +18 +22 1015.6 1013.6
12 19.06 З 4 10 км 6/4 540 м
[Cu Sc Ac trans Ci fib]
+19.6 +15.5 77 +22 +28 комфорт 1016.6 1014.6
15 19.06 З 4 10 км 5/3 600 м
[Cu Sc Ac cast Ci fib]
+19.8 +16.4 81 +22 +28 комфорт 1016.7 1014.7
18 19.06 СЗ 4 10 км 3/1 600 м
[Cu med, cong Ac trans Ci fib]
+19.2 +16.1 82 +21 +22 комфорт 1016.5 1014.5 +20.6

 

Местоположение метеостанции Овар (Португалия): широта 40.92 долгота -8.63 высота над уровнем моря 22 м.

В архиве по умолчанию представлена погода в Оваре за последнюю неделю. Архивные данные за месяц целиком и за предыдущие месяцы, начиная с января 2011 года, Вы можете получить, выбрав интересующий диапазон дат из раскрывающегося списка и нажав кнопку "Ввод!".


*Определитесь, кто Вы:
робот инопланетянин человек

Внимание! Время в таблицах - всемирное. Для получения местного времени необходимо прибавить поправку, которая равна 0 ч.

Смотрите также архив погоды в соседних городах и на ближайших метеорологических станциях:

Погода в Порту (Португалия) (35 км)
Погода в Визеу (Португалия) (67 км)
Погода в Виана-ду-Каштелу (Португалия) (80 км)
Погода в Вила-Реале (Португалия) (86 км)
Погода в Коимбре (Португалия) (87 км)
Погода в Обсерватории Penhas Douradas (Португалия) (107 км)
Погода в Монте-Реале (Португалия) (123 км)
Погода в Виго (Испания) (146 км)
Погода в Хинсо-де-Лимии (Испания) (149 км)
Погода в Кастело Бранко (Португалия) (156 км)

Пояснения к столбцам:

Ветер - указаны скорость ветра в м/с - средняя за 10 мин, порывы в срок и между сроками (в фигурных скобках) и направление, откуда дует ветер: С - северный, СВ - северо-восточный, В - восточный, ЮВ - юго-восточный, Ю - южный, ЮЗ - юго-западный, З - западный, СЗ - северо-западный.
Видимость - горизонтальная дальность видимости в метрах или километрах. При видимости от 1 до 10 км при отсутствии осадков обычно наблюдается дымка, при ухудшении видимости до 1 км и менее - туман. В сухую погоду видимость может ухудшаться дымом, пылью или мглою.
Явления - указаны атмосферные явления, наблюдавшиеся в срок или в последний час перед сроком; фигурными скобками обозначены явления, наблюдавшиеся между сроками (за 1-3 часа до срока); квадратными скобками обозначены град или гололедные отложения с указанием их диаметра в мм.
Облачность - указаны через наклонную черту общая и нижняя облачность в баллах и высота нижней границы облаков в метрах; квадратными скобками обозначены формы облаков: Ci - перистые, Cs - перисто-слоистые, Cc - перисто-кучевые, Ac - высококучевые, As - высокослоистые, Sc - слоисто-кучевые, Ns - слоисто-дождевые, Cu - кучевые, Cb - кучево-дождевые. Подробнее классификацию облаков см. в Атласе облаков (PDF).
T - Температура воздуха - температура, измеренная на высоте 2 м над землей.
Td - Температура точки росы - температура, при понижении до которой содержащийся в воздухе водяной пар достигнет насыщения.
f - Относительная влажность воздуха - влажноcть воздуха, измеренная на высоте 2 м над землей.
Te - Эффективная температура - температура, которую ощущает одетый по сезону человек в тени. Характеристика душности погоды. При расчете учитывается влияние влажности воздуха и скорости ветра на теплоощущения человека.
Tes - Эффективная температура на солнце - температура, которую ощущает человек, с поправкой на солнечный нагрев. Характеристика знойности погоды. Зависит от высоты солнца над горизонтом, облачности и скорости ветра. Ночью, в пасмурную погоду, а также при ветре 12 м/с и более поправка равна нулю.
P - Атмосферное давление - приведенное к уровню моря атмосферное давление.
Po - Атмосферное давление - измеренное на уровне метеостанции атмосферное давление.
Tmin - Минимальная температура - минимум температуры воздуха на высоте 2 м над землей.
Tmax - Максимальная температура - максимум температуры воздуха на высоте 2 м над землей.
R - Количество осадков - Количество выпавших осадков за период времени, мм. При наведении курсора мыши на число - период времени, за который выпало указанное количество осадков.
R24 - Количество осадков - Количество выпавших осадков за 24 часа, мм.
S - Снежный покров - Высота снежного покрова, см. При наведении курсора мыши на число - состояние снежного покрова и степень покрытия местности в баллах.